Temp
-6 -6 -7 -7 -7 -7 -7 -7 -7 -7 -7 -8 -8 -8 -8 -8 -8 -8 -8 -8 -8 -8 -8 -8 -8 -8 -7 -7 -8 -8 -8 -8 -8 -8 -9 -9 -9 -9 -9 -9 -9 -9 -9
-6 -6 -7 -7 -7 -7 -7 -7 -7 -7 -7 -8 -8 -8 -8 -8 -8 -8 -8 -8 -8 -8 -8 -8 -8 -8 -8 -8 -8 -8 -8 -8 -8 -9 -9 -9 -9 -9 -9 -9 -9 -9 -9
-6 -6 -7 -7 -7 -7 -7 -7 -7 -8 -8 -8 -8 -8 -8 -8 -8 -8 -8 -8 -8 -7 -8 -8 -8 -9 -8 -8 -8 -8 -8 -8 -8 -8 -9 -9 -9 -9 -9 -9 -9 -9 -9
-6 -6 -7 -7 -7 -7 -7 -8 -8 -8 -8 -8 -8 -8 -8 -8 -8 -8 -8 -8 -8 -8 -8 -8 -8 -8 -8 -8 -9 -8 -8 -8 -8 -8 -9 -9 -9 -9 -9 -9 -9 -9 -9
-6 -6 -7 -7 -7 -7 -7 -7 -8 -8 -8 -8 -8 -8 -8 -8 -7 -7 -8 -8 -8 -8 -8 -8 -8 -8 -9 -9 -8 -8 -8 -8 -8 -8 -9 -9 -9 -9 -9 -9 -9 -9 -9
-6 -6 -7 -7 -7 -7 -7 -7 -7 -7 -8 -8 -8 -8 -8 -7 -7 -7 -8 -8 -8 -8 -8 -8 -9 -9 -9 -8 -8 -8 -8 -8 -8 -8 -9 -9 -9 -9 -9 -9 -9 -9 -9
-6 -6 -6 -6 -6 -7 -7 -7 -7 -7 -7 -7 -7 -7 -7 -7 -7 -7 -7 -7 -7 -7 -7 -8 -8 -9 -9 -8 -8 -8 -8 -8 -8 -8 -8 -9 -8 -9 -9 -9 -9 -9 -9
-6 -6 -6 -6 -6 -7 -7 -7 -7 -7 -7 -7 -7 -7 -7 -7 -7 -7 -7 -7 -8 -7 -8 -8 -9 -8 -8 -8 -8 -8 -8 -8 -8 -8 -8 -9 -9 -9 -9 -9 -9 -9 -9
-6 -6 -6 -6 -7 -7 -7 -7 -7 -7 -7 -7 -7 -7 -7 -6 -7 -7 -7 -7 -7 -7 -7 -8 -8 -8 -8 -8 -8 -8 -8 -8 -8 -8 -8 -9 -9 -9 -9 -9 -9 -9 -9
-6 -6 -6 -6 -6 -6 -7 -7 -7 -6 -7 -7 -7 -7 -7 -6 -6 -7 -7 -7 -7 -7 -7 -8 -8 -8 -8 -8 -8 -8 -8 -8 -8 -8 -9 -9 -9 -9 -9 -9 -9 -9 -9
-6 -6 -6 -6 -6 -6 -6 -7 -7 -6 -7 -7 -7 -7 -7 -6 -7 -7 -7 -7 -7 -7 -7 -8 -8 -8 -8 -8 -8 -8 -8 -8 -8 -8 -9 -8 -9 -9 -9 -9 -9 -9 -9
-7 -6 -6 -6 -6 -6 -6 -6 -6 -6 -6 -7 -7 -7 -7 -7 -7 -7 -7 -7 -7 -7 -7 -7 -8 -8 -8 -8 -8 -8 -8 -8 -8 -8 -8 -8 -8 -8 -8 -9 -9 -8 -8
-7 -7 -6 -6 -6 -6 -6 -6 -6 -6 -6 -7 -7 -7 -7 -7 -7 -7 -7 -7 -6 -7 -7 -7 -7 -7 -8 -8 -7 -7 -7 -8 -8 -8 -8 -8 -8 -8 -8 -9 -8 -8 -8
-7 -6 -6 -6 -6 -6 -6 -6 -6 -7 -7 -7 -7 -7 -7 -7 -7 -7 -7 -7 -6 -6 -7 -7 -7 -7 -7 -7 -7 -7 -7 -7 -7 -8 -8 -8 -8 -8 -8 -9 -8 -8 -8
-7 -7 -6 -6 -6 -6 -6 -6 -7 -7 -7 -7 -7 -7 -7 -7 -7 -7 -7 -7 -7 -6 -6 -7 -6 -6 -7 -7 -7 -7 -7 -7 -7 -7 -7 -7 -7 -8 -8 -8 -8 -8 -8
-7 -6 -6 -6 -6 -6 -7 -7 -7 -7 -7 -7 -7 -7 -7 -7 -7 -7 -7 -7 -7 -7 -6 -6 -6 -6 -6 -6 -6 -6 -7 -7 -7 -7 -8 -7 -7 -8 -8 -8 -8 -8 -8
-7 -6 -6 -6 -6 -7 -6 -7 -7 -6 -7 -7 -7 -7 -7 -7 -7 -7 -7 -7 -7 -6 -6 -6 -6 -6 -6 -6 -6 -6 -7 -7 -7 -7 -7 -7 -7 -8 -8 -8 -8 -8 -8
-7 -6 -6 -6 -6 -6 -6 -6 -6 -6 -7 -7 -7 -7 -7 -7 -7 -7 -7 -7 -7 -6 -6 -6 -6 -6 -6 -6 -6 -6 -6 -7 -7 -7 -7 -7 -7 -7 -7 -7 -7 -8 -8
-6 -6 -6 -6 -6 -6 -6 -6 -6 -6 -6 -7 -6 -6 -7 -7 -7 -7 -7 -7 -7 -6 -5 -6 -6 -6 -6 -6 -6 -6 -6 -7 -7 -7 -7 -7 -7 -7 -7 -7 -7 -7 -7
-6 -6 -5 -6 -6 -6 -6 -6 -6 -6 -6 -6 -6 -6 -7 -7 -7 -7 -7 -7 -6 -6 -5 -5 -6 -6 -6 -6 -6 -6 -6 -7 -7 -7 -7 -7 -7 -7 -7 -7 -7 -7 -7
-6 -6 -5 -5 -6 -6 -6 -6 -6 -6 -6 -6 -6 -6 -6 -6 -6 -6 -6 -6 -6 -6 -5 -6 -6 -6 -6 -6 -6 -6 -6 -6 -6 -7 -7 -7 -7 -7 -6 -6 -6 -7 -7
-6 -6 -6 -5 -6 -6 -6 -6 -6 -6 -6 -6 -6 -6 -6 -6 -6 -6 -6 -6 -6 -5 -5 -5 -6 -6 -6 -6 -6 -6 -6 -6 -6 -6 -7 -7 -7 -7 -6 -6 -6 -6 -6
-6 -6 -6 -6 -6 -6 -5 -6 -6 -6 -6 -6 -5 -6 -6 -6 -6 -6 -6 -6 -5 -5 -5 -5 -6 -6 -6 -6 -6 -6 -6 -7 -7 -7 -7 -7 -7 -7 -7 -7 -7 -7 -7
-6 -6 -6 -6 -6 -6 -6 -6 -6 -6 -6 -5 -5 -6 -6 -5 -5 -5 -5 -5 -5 -5 -5 -5 -5 -6 -6 -6 -6 -6 -6 -7 -7 -7 -7 -7 -7 -7 -7 -7 -7 -7 -7
-6 -6 -6 -6 -6 -5 -5 -6 -6 -6 -5 -5 -5 -5 -6 -6 -5 -5 -5 -5 -5 -6 -6 -6 -6 -6 -6 -6 -6 -6 -7 -7 -7 -7 -7 -7 -7 -7 -7 -7 -7 -7 -8
-6 -6 -5 -5 -6 -5 -6 -6 -6 -6 -6 -6 -6 -5 -6 -6 -6 -5 -5 -5 -5 -5 -6 -6 -6 -6 -6 -6 -7 -7 -7 -7 -7 -7 -7 -8 -8 -8 -8 -8 -8 -8 -8
Height
5902 5902 5902 5903 5902 5902 5903 5904 5904 5905 5905 5906 5907 5907 5908 5909 5910 5911 5911 5912 5912 5913 5913 5913 5913 5913 5912 5912 5911 5911 5912 5913 5915 5916 5917 5917 5919 5920 5920 5921 5920 5920 5920
5902 5903 5904 5903 5903 5903 5904 5905 5906 5907 5907 5907 5909 5910 5911 5912 5912 5912 5913 5913 5913 5913 5913 5912 5912 5913 5912 5912 5912 5912 5912 5913 5915 5916 5917 5919 5920 5921 5921 5921 5921 5921 5920
5904 5903 5905 5904 5903 5903 5905 5907 5908 5908 5908 5909 5911 5912 5913 5914 5914 5914 5914 5913 5913 5913 5913 5912 5912 5913 5913 5912 5912 5913 5913 5915 5916 5917 5918 5919 5921 5921 5921 5922 5922 5922 5920
5904 5904 5905 5905 5905 5905 5907 5908 5909 5909 5910 5912 5914 5914 5915 5915 5915 5915 5915 5914 5913 5913 5913 5913 5913 5913 5913 5913 5913 5914 5914 5915 5917 5918 5919 5919 5921 5922 5923 5923 5923 5922 5921
5905 5906 5906 5906 5907 5908 5909 5910 5911 5911 5913 5914 5915 5916 5917 5918 5918 5916 5916 5915 5914 5913 5912 5912 5912 5913 5913 5914 5915 5915 5917 5918 5919 5919 5920 5922 5923 5924 5924 5924 5924 5924 5923
5906 5907 5908 5909 5909 5910 5911 5912 5912 5913 5914 5915 5916 5917 5918 5919 5918 5918 5918 5916 5914 5913 5911 5910 5911 5913 5915 5916 5917 5918 5919 5920 5921 5922 5923 5924 5925 5926 5926 5926 5926 5926 5925
5906 5908 5909 5910 5911 5912 5913 5913 5913 5914 5916 5916 5917 5918 5919 5920 5919 5919 5918 5917 5916 5914 5912 5911 5912 5915 5917 5919 5920 5921 5922 5923 5924 5926 5927 5928 5928 5928 5927 5927 5927 5927 5927
5906 5908 5910 5911 5912 5912 5913 5914 5915 5915 5916 5917 5919 5920 5921 5921 5921 5921 5921 5920 5919 5917 5915 5914 5915 5918 5921 5921 5922 5923 5924 5926 5927 5928 5929 5929 5930 5929 5929 5928 5927 5927 5926
5907 5908 5909 5911 5912 5912 5913 5914 5915 5917 5917 5919 5921 5922 5923 5924 5923 5923 5923 5923 5921 5920 5919 5918 5921 5922 5923 5924 5924 5926 5927 5929 5930 5930 5931 5931 5930 5931 5930 5929 5929 5928 5927
5908 5908 5910 5911 5912 5913 5915 5916 5917 5918 5920 5922 5923 5924 5925 5926 5926 5926 5925 5926 5924 5924 5923 5923 5925 5926 5927 5927 5927 5929 5930 5932 5932 5932 5932 5932 5932 5932 5932 5930 5929 5929 5928
5907 5908 5910 5912 5914 5915 5917 5918 5919 5921 5923 5924 5926 5927 5927 5928 5929 5929 5929 5928 5928 5927 5927 5927 5928 5929 5929 5930 5931 5932 5934 5934 5933 5933 5934 5934 5933 5932 5932 5932 5932 5931 5930
5907 5909 5911 5913 5915 5917 5919 5920 5922 5923 5925 5927 5928 5929 5930 5931 5931 5931 5931 5930 5931 5931 5930 5930 5931 5931 5931 5932 5932 5932 5934 5933 5934 5935 5936 5936 5935 5935 5934 5934 5933 5932 5931
5908 5910 5912 5914 5917 5920 5921 5923 5924 5925 5927 5929 5930 5930 5931 5932 5933 5934 5933 5933 5933 5933 5933 5933 5933 5933 5933 5934 5934 5934 5935 5935 5936 5937 5938 5938 5938 5937 5937 5936 5937 5936 5933
5908 5910 5914 5916 5919 5922 5924 5926 5928 5929 5930 5931 5932 5933 5933 5934 5935 5937 5936 5936 5935 5934 5935 5935 5936 5935 5936 5937 5937 5937 5938 5939 5940 5940 5941 5941 5940 5940 5938 5938 5938 5937 5936
5908 5911 5914 5917 5920 5923 5926 5928 5929 5931 5932 5932 5934 5934 5934 5935 5937 5938 5938 5937 5936 5935 5937 5937 5938 5938 5939 5940 5939 5940 5941 5941 5942 5943 5943 5943 5940 5942 5940 5940 5940 5940 5938
5910 5912 5915 5918 5922 5925 5927 5929 5931 5932 5933 5934 5935 5936 5936 5937 5938 5939 5939 5939 5937 5937 5938 5940 5939 5940 5941 5942 5942 5942 5943 5944 5945 5944 5945 5945 5943 5944 5943 5943 5942 5941 5940
5910 5913 5915 5919 5923 5925 5928 5930 5931 5933 5934 5935 5936 5938 5939 5939 5939 5939 5940 5940 5939 5938 5940 5940 5941 5941 5943 5944 5945 5945 5945 5946 5946 5947 5947 5947 5947 5947 5946 5945 5943 5943 5942
5911 5913 5917 5920 5923 5926 5929 5931 5932 5933 5935 5936 5938 5940 5941 5940 5940 5940 5939 5940 5940 5939 5940 5941 5942 5943 5944 5945 5947 5946 5947 5947 5948 5948 5949 5949 5949 5948 5948 5947 5946 5945 5943
5911 5914 5917 5921 5923 5927 5930 5932 5934 5935 5936 5938 5939 5941 5941 5940 5941 5941 5941 5941 5940 5939 5940 5942 5944 5945 5946 5948 5948 5948 5948 5949 5949 5950 5951 5951 5951 5951 5951 5950 5948 5947 5946
5912 5914 5917 5920 5924 5927 5931 5933 5935 5937 5938 5939 5941 5942 5942 5942 5942 5942 5942 5943 5942 5941 5942 5944 5946 5947 5948 5950 5950 5950 5950 5950 5951 5951 5952 5953 5953 5953 5953 5952 5951 5949 5947
5911 5915 5918 5921 5924 5927 5930 5934 5936 5938 5939 5940 5942 5943 5944 5944 5944 5944 5944 5944 5945 5944 5945 5946 5948 5949 5951 5952 5952 5952 5952 5952 5952 5953 5954 5954 5955 5955 5954 5953 5952 5951 5950
5909 5912 5917 5921 5924 5926 5929 5932 5935 5938 5940 5941 5944 5944 5945 5946 5946 5946 5946 5946 5948 5949 5949 5950 5950 5951 5952 5954 5955 5955 5954 5954 5954 5955 5956 5956 5956 5956 5956 5955 5955 5954 5953
5908 5911 5915 5919 5922 5925 5928 5933 5936 5939 5941 5943 5944 5945 5945 5946 5947 5947 5948 5948 5950 5951 5952 5952 5953 5953 5954 5956 5957 5957 5955 5956 5956 5957 5957 5957 5957 5957 5958 5957 5957 5956 5956
5905 5908 5911 5916 5919 5923 5927 5932 5935 5937 5939 5942 5944 5945 5946 5947 5948 5949 5950 5951 5952 5954 5954 5954 5955 5954 5955 5957 5958 5957 5957 5957 5957 5958 5959 5959 5959 5959 5959 5959 5959 5959 5958
5900 5905 5909 5913 5917 5921 5926 5930 5933 5937 5940 5943 5944 5945 5946 5948 5949 5949 5951 5952 5954 5955 5955 5956 5957 5956 5956 5957 5958 5958 5958 5958 5958 5959 5960 5960 5961 5961 5961 5960 5960 5959 5959
5899 5902 5906 5911 5915 5919 5924 5928 5932 5936 5939 5941 5943 5945 5946 5948 5950 5950 5951 5953 5954 5955 5955 5956 5957 5957 5958 5958 5959 5959 5959 5960 5960 5960 5961 5961 5962 5962 5961 5962 5961 5961 5960
Wind_Speed
8 7 6 5 5 7 10 11 12 13 14 15 16 18 17 15 13 13 12 9 8 5 4 4 4 5 6 6 6 6 6 8 8 10 11 13 15 15 14 13 11 9 8
10 7 6 7 7 9 11 12 12 13 15 15 16 17 17 16 15 13 11 9 8 6 5 5 4 4 5 5 6 7 8 9 10 12 14 16 16 14 12 11 10 8 7
7 9 7 8 9 11 11 12 12 13 15 15 14 14 14 13 11 10 8 6 6 5 3 4 5 6 8 7 7 9 12 13 14 15 17 18 15 13 11 10 8 8 8
7 9 8 9 10 11 11 12 12 14 14 14 14 13 12 11 10 9 8 7 10 7 4 4 3 4 8 8 11 11 14 16 17 18 17 17 14 12 11 9 9 8 7
8 10 10 9 10 11 12 12 12 14 14 16 15 13 11 11 10 11 11 10 10 8 7 4 4 8 11 12 12 15 16 19 18 18 22 17 14 12 10 9 8 8 8
9 10 10 10 12 13 12 12 14 16 16 17 16 14 13 13 15 14 13 15 15 13 10 7 9 13 16 14 17 19 19 19 19 19 18 15 13 10 8 8 7 7 8
10 10 10 10 12 13 13 13 14 16 17 17 15 15 16 17 16 16 17 17 16 15 15 14 18 19 20 21 20 20 19 17 16 15 14 12 11 9 8 6 6 6 7
10 11 11 11 12 13 13 14 15 16 17 16 15 18 18 17 17 17 17 18 18 20 19 19 22 22 22 21 20 19 18 16 15 14 12 11 10 9 8 7 7 6 6
8 9 11 11 11 12 15 15 17 18 18 17 19 19 17 17 17 17 18 17 19 19 21 20 23 20 20 18 18 18 17 16 15 13 14 13 10 10 8 8 6 6 5
8 9 10 11 10 13 16 17 20 22 21 18 17 18 17 16 15 16 16 15 17 17 20 21 21 17 16 15 17 17 16 15 15 14 13 13 12 9 8 7 8 9 9
8 10 11 11 11 16 19 20 22 22 20 17 16 17 17 15 15 13 15 16 17 15 17 19 16 14 14 13 14 13 12 11 11 10 12 13 10 10 10 9 10 12 12
10 11 11 10 13 19 21 21 21 21 19 17 16 16 15 12 10 12 12 12 14 14 15 15 14 12 11 11 12 13 12 9 7 9 10 11 10 12 11 10 11 12 13
12 12 13 10 16 20 21 21 19 20 19 15 14 13 13 12 10 8 10 9 11 12 13 14 14 13 13 13 12 13 12 11 10 9 11 11 10 11 10 10 14 13 13
13 14 13 13 19 21 21 20 20 18 18 17 13 13 12 12 9 10 9 8 9 9 11 13 13 12 12 13 13 13 12 13 12 10 12 12 10 11 11 13 16 14 14
15 15 14 17 22 22 21 19 18 17 18 15 13 13 12 12 10 9 9 9 8 8 10 10 11 11 13 12 12 13 12 12 12 10 12 13 8 11 13 16 15 14 14
14 15 15 20 24 21 20 17 17 17 14 14 13 12 12 11 11 8 7 7 7 8 9 11 9 10 12 12 11 11 11 10 10 9 12 12 8 13 13 14 15 14 15
15 15 19 23 26 21 17 18 18 17 16 15 13 12 11 10 10 7 6 6 6 6 8 10 9 9 10 10 10 10 10 9 10 11 13 14 12 14 14 14 13 11 12
16 17 20 23 25 20 15 15 16 17 15 14 13 11 10 11 11 9 8 7 6 7 9 11 10 9 9 8 7 9 9 9 10 11 12 13 12 12 14 12 13 12 12
17 18 21 23 24 20 14 14 13 15 14 12 12 10 11 12 13 12 11 9 8 9 9 11 12 10 9 8 9 10 10 11 11 12 13 13 11 13 14 12 16 16 14
18 19 21 23 23 20 14 15 13 12 14 12 10 11 12 14 13 13 13 14 13 12 11 13 13 12 13 11 11 13 12 13 12 12 12 12 12 12 14 17 18 20 16
21 19 21 22 22 19 18 17 15 14 13 13 12 13 13 13 14 13 16 19 18 17 14 14 13 13 12 11 12 12 13 13 12 11 10 11 11 13 15 17 19 22 24
24 23 23 23 22 22 21 21 18 14 12 12 12 14 14 12 14 16 17 19 17 15 14 13 12 12 11 10 11 13 13 12 10 9 8 9 12 14 14 15 17 18 18
26 25 25 26 25 24 22 19 17 15 13 14 14 13 14 13 13 14 15 15 16 15 14 15 14 12 11 10 10 10 9 8 8 9 8 10 12 14 16 15 14 14 15
29 29 28 29 28 25 23 20 19 21 19 17 16 14 12 12 13 12 13 14 13 13 12 11 11 11 11 7 5 6 8 8 7 9 9 9 9 11 12 12 12 12 12
32 32 31 30 29 24 22 22 21 18 14 14 15 15 14 11 12 12 11 11 9 8 9 7 7 8 9 7 6 7 9 9 8 8 10 10 8 8 8 9 9 10 11
26 33 33 31 29 25 23 24 22 17 15 15 15 15 15 13 12 12 11 10 8 6 6 6 4 5 7 8 8 9 10 10 10 10 9 9 9 9 8 9 12 11 10
Wind_Direction
121 102 102 99 88 90 99 106 99 96 101 101 93 91 95 100 101 102 101 109 107 101 101 108 104 100 98 98 102 118 147 148 142 137 124 127 120 114 109 105 101 93 89
119 108 106 99 98 102 105 102 101 102 101 98 93 91 95 98 101 104 106 108 110 111 104 97 101 111 110 103 110 128 134 142 142 135 135 132 132 132 114 101 98 96 87
113 116 111 102 105 106 107 110 107 102 101 104 101 99 100 101 102 101 99 109 124 109 119 142 135 128 146 125 111 129 129 135 141 139 140 139 135 125 113 109 101 90 81
119 118 110 106 111 116 115 109 105 106 110 114 107 105 103 97 97 98 92 78 75 82 88 85 87 127 137 130 122 125 129 133 134 138 137 139 131 124 120 113 101 89 84
126 121 114 112 122 122 121 118 120 119 120 116 111 108 104 102 98 90 84 72 69 62 54 64 111 119 115 108 116 124 125 126 126 128 139 127 132 130 122 109 94 77 73
129 123 120 125 134 130 130 130 126 127 125 116 114 114 110 103 98 88 79 69 63 51 39 63 111 110 110 110 111 116 120 122 124 127 130 131 127 119 107 93 80 71 72
134 130 129 134 138 133 131 128 126 125 123 118 116 114 109 103 96 83 70 63 59 50 55 88 112 111 113 106 112 113 113 115 117 117 117 112 107 99 87 78 77 75 77
144 141 136 140 140 129 125 124 122 119 116 115 113 111 108 102 91 83 72 66 61 59 65 91 112 110 112 115 116 115 113 112 107 107 108 101 88 80 80 86 87 85 77
149 140 137 140 135 121 123 122 117 116 112 112 116 111 107 97 91 87 79 72 65 67 74 97 115 114 114 114 113 112 108 102 102 100 90 81 79 75 72 72 74 60 51
142 134 137 141 131 120 122 118 116 112 112 112 109 107 102 96 92 90 89 80 72 71 82 102 114 110 116 119 119 117 106 101 106 103 84 76 68 65 57 56 58 57 61
131 134 139 144 128 128 125 122 118 112 111 110 106 106 102 103 93 91 87 86 79 73 83 95 112 110 114 115 122 118 101 103 107 94 74 65 73 67 60 55 55 58 60
137 139 144 146 133 136 132 126 120 114 112 108 106 105 105 107 89 96 85 87 92 86 85 93 93 98 96 105 115 115 113 111 100 88 80 77 78 74 72 66 66 69 69
141 144 148 146 138 142 137 129 123 118 112 109 108 110 108 102 108 90 110 98 94 94 91 93 98 96 98 96 98 96 104 107 100 94 89 83 71 70 68 64 61 63 63
144 147 150 148 145 146 138 133 128 118 121 111 113 102 101 99 105 96 112 122 109 104 99 100 99 101 97 94 95 95 95 95 94 88 87 80 71 68 66 68 72 69 64
149 153 152 153 150 146 142 142 138 123 129 116 111 100 97 102 106 96 103 110 110 114 109 104 102 102 98 98 99 103 100 95 90 86 83 85 80 75 74 76 72 70 62
152 153 153 153 152 146 150 151 143 135 131 129 114 104 99 102 101 105 106 112 118 115 115 117 122 109 105 108 105 103 100 100 93 83 86 89 92 85 78 74 69 68 69
156 153 154 156 158 154 151 153 143 128 129 127 108 101 97 98 101 103 104 117 134 140 138 125 138 134 117 109 104 98 89 84 74 73 77 89 87 78 73 65 70 68 70
161 157 158 161 165 169 159 158 146 137 136 125 110 107 98 96 97 98 96 94 105 133 135 138 130 126 121 114 108 97 81 78 76 78 81 90 87 74 71 66 60 69 80
166 159 166 166 169 170 163 163 151 138 134 127 113 105 98 90 90 94 90 82 101 121 125 125 127 114 109 110 108 96 93 88 85 82 83 83 74 68 71 65 63 58 69
171 169 171 169 171 170 163 163 159 149 136 131 123 112 104 98 93 100 88 82 92 103 114 120 126 110 101 99 100 98 94 92 90 84 86 82 74 67 65 61 57 63 64
173 175 175 174 170 170 170 172 173 166 151 142 136 121 113 110 105 107 97 88 90 94 100 102 106 101 104 103 99 97 100 95 91 90 90 85 82 78 62 63 66 58 56
179 177 181 182 177 175 177 178 176 172 156 149 148 130 125 126 116 107 105 94 90 96 104 101 98 103 107 106 111 113 105 97 95 93 97 92 92 86 75 76 69 61 56
187 183 185 184 189 185 184 181 173 168 169 166 158 142 132 128 121 114 107 104 96 96 98 104 109 113 111 113 119 114 104 104 106 106 110 103 98 91 88 89 79 65 57
193 190 189 186 190 196 187 182 178 183 183 177 164 153 140 135 129 122 114 109 111 105 97 99 104 109 112 115 117 119 117 119 122 121 115 98 98 97 88 86 79 70 62
195 193 194 191 193 198 190 184 190 195 186 186 176 163 155 148 139 129 121 116 115 112 102 99 100 108 115 113 117 122 119 125 124 126 111 104 114 102 99 93 84 76 71
198 201 197 196 194 197 196 190 195 198 190 190 182 177 172 161 148 139 132 128 124 110 94 92 101 109 116 119 117 118 115 119 129 129 121 110 107 95 87 83 76 71 65